Regional Weather Roundup
Issued by NWS

Home | Current Version | Previous Version | Text Only | Print | Product List | Glossary Off
Versions: 1 2 3 4 5 6 7 8 9 10 11 12 13 14 15 16 17 18 19 20 21 22 23 24 25 26 27 28 29 30 31 32 33 34 35 36 37 38 39 40 41 42 43 44 45 46 47 48 49 50

000
ASUS43 KDTX 252010
RWRMI
MICHIGAN HOURLY REGIONAL WEATHER ROUNDUP
NATIONAL WEATHER SERVICE DETROIT/PONTIAC MI
400 PM EDT SAT OCT 25 2014

NOTE: "FAIR" INDICATES FEW OR NO CLOUDS BELOW 12,000 FEET WITH NO
SIGNIFICANT WEATHER AND/OR OBSTRUCTION TO VISIBILITY.

MIZ047>049-052>055-059>063-066>070-074>076-081>083-252100-
SOUTHEAST LOWER MICHIGAN

CITY           SKY/WX    TMP DP  RH WIND       PRES   REMARKS
ADRIAN         SUNNY     69  40  34 W17G29    29.79F
ALMA           SUNNY     67  25  20 W17G29    29.74S
ANN ARBOR      SUNNY     69  39  33 W24G33    29.75S
BAD AXE        SUNNY     65  40  39 W23G31    29.65S
DETROIT CITY   SUNNY     70  42  36 W18G26    29.72F
DETROIT        MOSUNNY   69  40  34 W21G38    29.74F
FLINT          SUNNY     69  42  37 W17G31    29.71F
GROSSE ILE     SUNNY     70  45  40 W16G23    29.73S
HILLSDALE      SUNNY     68  41  37 W20G26    29.81S
HOWELL         SUNNY     66  37  34 W17G28    29.75F

CITY           SKY/WX    TMP DP  RH WIND       PRES   REMARKS
JACKSON        SUNNY     67  34  29 NW24G37   29.79S
LAMBERTVILLE   SUNNY     70  45  40 W16G24    29.78S
LANSING        SUNNY     66  29  24 W21G33    29.77F
LAPEER         NOT AVBL
MASON          SUNNY     66  35  30 W22G29    29.77F
MONROE         SUNNY     70  46  43 W16G31    29.75S
MT. CLEMENS    MOSUNNY   66  43  42 W18G25    29.70F
PONTIAC        MOSUNNY   65  41  41 W22G36    29.72F
PORT HOPE        N/A     67  37  33 W10G24    29.62S
PORT HURON     MOSUNNY   64  46  52 W12G21    29.70S
TRI CITIES     SUNNY     68  27  21 W28G36    29.69F
YPSILANTI      SUNNY     73  40  30 W22G32    29.75S
$$
MIZ043>046-050>051-056>058-064>065-071>073-077>080-252100-
SOUTHWEST LOWER MICHIGAN

CITY           SKY/WX    TMP DP  RH WIND       PRES   REMARKS
BATTLE CREEK   SUNNY     67  31  26 W21G28    29.84R
BENTON HARBOR  SUNNY     62  47  57 W14       29.89F
BIG RAPIDS     SUNNY     61  37  40 W18G31    29.77R
COLDWATER      SUNNY     68  36  30 W23G32    29.82F
HOLLAND        SUNNY     65  45  48 W17G29    29.86S
GRAND RAPIDS   MOSUNNY   65  36  34 W26G36    29.82R
KALAMAZOO      SUNNY     66  30  26 NW23G35   29.86R
MARSHALL       SUNNY     67  31  26 W18G29    29.81R
MUSKEGON       SUNNY     63  43  48 W17G24    29.84S
$$
MIZ016>042-252100-
NORTHERN LOWER MICHIGAN

CITY           SKY/WX    TMP DP  RH WIND       PRES   REMARKS
ALPENA         MOSUNNY   60  36  40 W17G28    29.64R
BEAVER ISLAND  SUNNY     59  43  56 W10       29.70S
BELLAIRE       SUNNY     60  37  42 W8G20     29.72S
CADILLAC       SUNNY     59  37  43 W18G30    29.74R
CHARLEVOIX     SUNNY     58  42  55 W18       29.74S
FRANKFORT      CLEAR     62  41  46 W7        29.77S
GAYLORD        SUNNY     56  33  42 W16G31    29.70R
GRAYLING       SUNNY     59  32  36 W17G28    29.71S
HARBOR SPRINGS SUNNY     57  46  68 W9G16     29.70R
HOUGHTON LAKE  SUNNY     59  34  39 W21G29    29.71R
MANISTEE       SUNNY     59  39  47 W15G22    29.80R
OSCODA         SUNNY     64  34  32 NW21G29   29.63R
PELLSTON       MOSUNNY   57  39  51 W20G26    29.69R
TRAVERSE CITY  MOSUNNY   63  33  32 W17G26    29.73S
$$
MIZ007>008-015-252100-
EASTERN UPPER MICHIGAN

CITY           SKY/WX    TMP DP  RH WIND       PRES   REMARKS
KINROSS        CLOUDY    52  37  58 NW18G28   29.65S
MACKINAC ISLAN CLOUDY    57  36  45 W17G31    29.67R
NEWBERRY       MOSUNNY   55  35  47 W20G35    29.68R
S. S. MARIE    CLOUDY    51  36  56 W21G28    29.65R
$$
MIZ004>006-011>014-085-252100-
CENTRAL UPPER MICHIGAN

CITY           SKY/WX    TMP DP  RH WIND       PRES   REMARKS
MANISTIQUE     SUNNY     60  32  34 NW17G25   29.69R
ESCANABA       SUNNY     63  28  27 NW22G29   29.69F
MENOMINEE      SUNNY     63  25  23 NW13G23   29.76S
SAWYER-GWINN   SUNNY     55  30  38 W21G30    29.72R
$$
MIZ001>003-009>011-084-252100-
WESTERN UPPER MICHIGAN

CITY           SKY/WX    TMP DP  RH WIND       PRES   REMARKS
IRON MOUNTAIN  SUNNY     61  22  22 W16G29    29.76S
HOUGHTON       SUNNY     53  33  46 W29G39    29.73S
IRONWOOD       SUNNY     57  28  33 W18G28    29.82R
$$

ABBREVIATIONS USED IN REMARKS
   TC - TEMPERATURE IN CELSIUS
  WCI - WIND CHILL INDEX
   HX - HEAT INDEX
  VSB - VISIBILITY




USA.gov is the U.S. government's official web portal to all federal, state and local government web resources and services.